This demonstration page uses our WeatherBlox Daily Observations layout. Learn more.

Left ArrowRight Arrow

39.08367, -84.50855

Hourly Observations for October 14, 2018

Temp ( °F °C ) Dew Point ( °F °C ) Humidity (%) Winds ( mph kmh ) Pressure ( in mb ) Visibility ( mi km ) Precip ( " mm )
12:53 am 00:53 Mostly Cloudy 46 7.8 44 6.7 93 93 NE 3 6 30.12 1020 10 16 N/A
1:53 am 01:53 Cloudy 46 7.8 43 6.1 89 89 N 5 7 30.09 1019 10 16 N/A
2:53 am 02:53 Cloudy 46 7.8 45 7.2 96 96 N N/A 30.11 1020 10 16 N/A
3:53 am 03:53 Cloudy 47 8.3 44 6.7 90 90 N N/A 30.09 1019 10 16 N/A
4:53 am 04:53 Cloudy with Light Rain 47 8.3 45 7.2 93 93 N N/A 30.12 1020 9 14 0.01 0.25
5:53 am 05:53 Cloudy 47 8.3 46 7.8 97 97 N N/A 30.12 1020 10 16 0.01 0.25
6:53 am 06:53 Cloudy 47 8.3 45 7.2 93 93 N N/A 30.13 1020 10 16 0.01 0.25
7:53 am 07:53 Cloudy with Light Rain 47 8.3 46 7.8 97 97 N N/A 30.12 1020 9 14 0.03 0.76
8:53 am 08:53 Mostly Cloudy with Light Rain 47 8.3 46 7.8 97 97 N N/A 30.13 1020 10 16 N/A
9:33 am 09:33 Cloudy with Light Rain 48 8.9 47 8.3 96 96 N N/A 30.12 1020 10 16 0.01 0.25
9:53 am 09:53 Cloudy with Light Rain 48 8.9 47 8.3 96 96 N N/A 30.14 1021 10 16 0.01 0.25
10:18 am 10:18 Cloudy 48 8.9 47 8.3 96 96 N N/A 30.12 1020 10 16 N/A
10:53 am 10:53 Cloudy 49 9.4 48 8.9 97 97 E 3 6 30.12 1020 10 16 N/A
11:53 am 11:53 Cloudy 51 10.6 49 9.4 92 92 E 6 9 30.12 1020 10 16 N/A
12:53 pm 12:53 Cloudy with Mist and Fog 52 11.1 50 10 93 93 SE 3 6 30.11 1020 5 8 N/A
1:49 pm 13:49 Cloudy with Light Rain 52 11 52 11 100 100 E 5 7 30.09 1019 2 3 0.01 0.25
1:53 pm 13:53 Cloudy with Light Rain 52 11.1 52 11.1 100 100 ESE 3 6 30.08 1019 2 3 0.01 0.25
2:53 pm 14:53 Cloudy with Light Rain 53 11.7 53 11.7 100 100 VRB 5 7 30.04 1017 2 3 0.02 0.51
3:53 pm 15:53 Cloudy with Mist and Fog 53 11.7 53 11.7 100 100 ESE 5 7 30.03 1017 3 5 0.01 0.25
4:53 pm 16:53 Cloudy with Mist and Fog 53 11.7 53 11.7 100 100 N N/A 30.01 1016 2 3 N/A
5:53 pm 17:53 Cloudy with Mist and Fog 53 11.7 53 11.7 100 100 VRB 3 6 30.01 1016 2 3 N/A
6:53 pm 18:53 Cloudy with Mist and Fog 53 11.7 53 11.7 100 100 NNE 3 6 30.01 1016 2 3 N/A
7:53 pm 19:53 Cloudy with Mist and Fog 53 11.7 53 11.7 100 100 N 5 7 30.01 1016 3 5 N/A
8:53 pm 20:53 Cloudy with Mist and Fog 54 12.2 54 12.2 100 100 NNE 3 6 30.01 1016 2 3 N/A
9:53 pm 21:53 Cloudy with Mist and Fog 54 12.2 54 12.2 100 100 N N/A 30.00 1016 3 4 N/A
10:53 pm 22:53 Cloudy with Light Rain 54 12.2 54 12.2 100 100 N N/A 30.00 1016 2 3 N/A
11:06 pm 23:06 Cloudy with Light Rain 54 12.2 54 12.2 100 100 N N/A 30.00 1016 3 5 0.01 0.25
11:53 pm 23:53 Cloudy with Mist and Fog 55 12.8 55 12.8 100 100 N N/A 30.00 1016 3 4 0.01 0.25

Powered by AerisWeather